Total_Precipitation_Accumulation
0.04 0.03 0.04 0.07 0.10 0.12 0.15 0.19 0.28 0.46 0.55 0.45 0.45 0.47 0.48 0.54 0.79 1.44 0.92 0.57 0.40 0.29 0.33 0.36 0.35 0.33 0.31 0.28 0.30 0.25 0.23 0.26 0.29 0.30 0.35 0.38 0.29 0.26 0.26 0.29 0.37 0.47 0.48 0.45 0.42 0.42 0.46 0.47 0.36
0.04 0.04 0.05 0.07 0.08 0.12 0.19 0.23 0.35 0.47 0.48 0.49 0.47 0.57 0.57 0.50 0.42 0.43 0.51 0.44 0.30 0.26 0.33 0.33 0.34 0.36 0.34 0.30 0.30 0.27 0.28 0.29 0.34 0.38 0.42 0.45 0.37 0.32 0.33 0.34 0.38 0.48 0.49 0.45 0.41 0.39 0.42 0.42 0.34
0.04 0.06 0.05 0.04 0.08 0.13 0.26 0.32 0.41 0.47 0.47 0.53 0.62 0.65 0.66 0.66 0.50 0.52 0.55 0.41 0.30 0.31 0.33 0.32 0.30 0.36 0.41 0.41 0.39 0.38 0.35 0.38 0.42 0.48 0.53 0.58 0.49 0.42 0.42 0.42 0.42 0.50 0.51 0.50 0.46 0.41 0.40 0.40 0.37
0.04 0.04 0.04 0.06 0.10 0.11 0.20 0.36 0.44 0.49 0.51 0.49 0.52 0.67 0.77 0.74 0.62 0.59 0.55 0.44 0.34 0.38 0.41 0.35 0.36 0.40 0.54 0.54 0.50 0.48 0.46 0.47 0.54 0.57 0.57 0.61 0.55 0.51 0.55 0.58 0.57 0.60 0.60 0.59 0.56 0.54 0.46 0.42 0.49
0.01 0.02 0.04 0.09 0.12 0.15 0.19 0.40 0.49 0.50 0.50 0.49 0.61 0.81 0.91 0.97 0.82 0.70 0.61 0.60 0.56 0.56 0.54 0.47 0.45 0.46 0.58 0.57 0.55 0.52 0.52 0.53 0.62 0.65 0.61 0.63 0.58 0.53 0.60 0.72 0.73 0.78 0.80 0.67 0.59 0.58 0.52 0.50 0.58
0.01 0.02 0.07 0.10 0.16 0.22 0.24 0.33 0.44 0.52 0.57 0.58 0.71 0.91 1.19 1.28 1.14 0.97 0.75 0.71 0.65 0.64 0.57 0.49 0.48 0.49 0.62 0.67 0.61 0.57 0.54 0.58 0.71 0.75 0.70 0.64 0.62 0.62 0.68 0.77 0.85 0.92 0.90 0.72 0.66 0.62 0.58 0.61 0.61
0.00 0.02 0.05 0.07 0.15 0.24 0.27 0.37 0.50 0.56 0.67 0.73 0.85 1.07 1.36 1.43 1.18 1.01 0.93 0.82 0.70 0.70 0.67 0.63 0.66 0.65 0.66 0.67 0.70 0.75 0.65 0.70 0.81 0.80 0.82 0.74 0.71 0.82 0.89 0.88 0.91 0.94 0.93 0.79 0.70 0.70 0.63 0.65 0.67
0.00 0.03 0.06 0.10 0.14 0.20 0.26 0.39 0.58 0.68 0.81 0.90 1.09 1.14 1.56 1.59 1.32 1.19 1.16 1.16 1.16 1.23 1.28 1.12 1.04 0.93 0.77 0.68 0.68 0.71 0.72 0.85 0.96 0.88 0.83 0.82 0.83 0.91 1.02 0.98 0.95 0.88 0.81 0.79 0.76 0.77 0.72 0.65 0.61
0.00 0.02 0.06 0.09 0.14 0.19 0.29 0.44 0.54 0.68 0.88 0.93 1.00 0.99 1.28 1.33 1.38 1.53 1.59 1.77 1.78 1.79 1.92 1.62 1.21 1.00 1.01 0.89 0.76 0.81 0.79 0.83 0.91 0.90 0.87 0.93 1.15 1.29 1.33 1.16 1.18 1.07 0.94 0.90 0.90 0.81 0.74 0.66 0.59
0.00 0.01 0.04 0.08 0.12 0.18 0.33 0.50 0.57 0.61 0.81 0.87 0.90 0.96 1.12 1.38 1.54 1.70 1.88 2.51 2.38 2.14 2.11 1.91 1.45 1.46 1.59 1.27 1.15 1.10 1.02 0.99 0.98 1.11 1.11 1.20 1.61 1.70 1.44 1.46 1.39 1.37 1.23 1.13 1.12 1.07 0.92 0.78 0.72
0.01 0.01 0.04 0.08 0.14 0.23 0.38 0.52 0.63 0.77 0.91 0.98 1.06 1.18 1.34 1.66 1.68 1.75 2.03 2.62 2.79 2.38 1.97 1.65 1.55 1.53 1.66 1.62 1.55 1.50 1.49 1.56 1.58 1.62 1.63 1.79 1.86 1.69 1.50 1.69 1.62 1.63 1.53 1.48 1.55 1.39 1.16 1.08 1.10
0.01 0.02 0.06 0.13 0.19 0.26 0.45 0.64 0.74 0.96 1.12 1.18 1.17 1.20 1.49 1.63 1.62 1.87 2.33 2.35 2.39 2.29 2.06 1.93 1.88 1.80 1.88 2.15 2.12 2.01 2.02 1.97 1.88 1.90 1.85 2.12 2.27 2.14 2.11 2.13 2.03 2.13 2.17 2.16 1.92 1.72 1.49 1.35 1.22
0.03 0.05 0.08 0.14 0.27 0.30 0.44 0.69 0.67 0.81 0.95 0.98 0.99 1.09 1.34 1.59 1.82 2.19 2.46 2.53 2.53 2.50 2.27 2.17 2.23 2.20 2.18 2.50 2.69 2.48 2.44 2.28 2.14 2.09 2.11 2.22 2.32 2.37 2.51 2.48 2.60 2.49 2.36 2.26 2.14 1.83 1.77 1.62 1.42
0.04 0.07 0.12 0.18 0.31 0.37 0.38 0.50 0.55 0.71 0.80 0.88 1.01 1.08 1.24 1.54 2.00 2.30 2.46 2.59 2.73 2.81 2.55 2.38 2.43 2.32 2.29 2.45 2.66 2.71 2.63 2.63 2.54 2.38 2.31 2.33 2.45 2.62 2.66 2.73 2.71 2.54 2.34 2.35 2.34 2.16 2.10 1.97 1.80
0.06 0.09 0.17 0.22 0.27 0.32 0.31 0.41 0.55 0.64 0.73 0.78 0.97 1.22 1.39 1.81 2.06 2.14 2.31 2.66 2.89 3.08 3.07 2.91 2.82 2.88 2.73 2.66 2.72 2.67 2.68 2.86 2.80 2.77 2.75 2.59 2.51 2.61 2.71 2.86 2.82 2.70 2.60 2.55 2.46 2.42 2.36 2.21 2.07
0.11 0.12 0.17 0.23 0.27 0.27 0.30 0.52 0.62 0.70 0.76 0.83 0.84 1.08 1.50 1.86 1.82 1.81 2.11 2.68 3.38 3.67 3.59 3.15 2.82 3.05 3.06 3.03 3.07 3.13 3.06 3.15 3.07 2.85 2.92 2.83 2.83 2.75 2.76 2.75 2.66 2.62 2.59 2.75 2.80 2.68 2.64 2.51 2.41
0.16 0.14 0.18 0.24 0.26 0.27 0.34 0.62 0.79 0.81 0.86 0.87 0.90 1.13 1.47 1.57 1.52 1.66 2.11 2.84 3.69 4.28 4.03 3.40 3.06 3.14 3.25 3.20 3.37 3.60 3.70 3.64 3.46 3.28 3.26 3.10 3.13 3.05 3.02 3.11 3.06 2.93 2.98 2.98 2.77 2.82 2.87 2.89 2.81
0.16 0.15 0.22 0.23 0.23 0.25 0.33 0.53 0.71 0.95 0.98 1.01 1.02 1.25 1.38 1.51 1.48 1.66 2.18 2.93 3.70 4.41 4.27 3.79 3.49 3.63 3.58 3.45 3.61 3.78 3.84 3.83 3.89 3.91 3.84 3.62 3.50 3.53 3.67 3.72 3.65 3.42 3.32 3.28 3.32 3.28 3.00 2.82 2.76
0.15 0.18 0.22 0.23 0.22 0.27 0.33 0.49 0.62 0.82 0.87 0.95 1.08 1.22 1.19 1.27 1.43 1.78 2.29 3.01 3.46 3.63 3.71 3.85 3.81 3.86 3.86 3.78 3.80 4.01 4.15 4.16 4.13 4.27 4.33 4.15 4.04 4.11 4.35 4.36 4.26 3.96 3.68 3.51 3.45 3.38 3.15 2.87 2.68
0.19 0.21 0.23 0.26 0.24 0.25 0.36 0.54 0.70 0.81 0.87 0.97 1.09 1.12 1.11 1.12 1.35 1.81 2.27 2.71 3.04 3.39 3.55 3.69 3.68 3.90 4.15 4.51 4.98 5.24 5.35 5.24 5.06 4.98 4.90 4.76 4.65 4.66 4.72 4.70 4.38 4.04 3.86 3.61 3.36 3.26 3.12 2.88 2.77
0.18 0.16 0.22 0.30 0.33 0.31 0.43 0.74 0.84 0.91 1.06 1.20 1.26 1.34 1.35 1.22 1.40 1.77 2.02 2.38 2.66 3.00 3.26 3.44 3.71 4.18 4.71 5.36 6.13 6.43 6.17 5.76 5.55 5.23 5.16 4.97 4.74 4.69 4.72 4.43 4.14 3.91 3.71 3.53 3.32 3.23 3.15 2.89 2.78
0.14 0.12 0.17 0.24 0.31 0.37 0.39 0.79 1.05 1.12 1.35 1.50 1.39 1.36 1.39 1.39 1.44 1.63 1.87 2.14 2.34 2.71 3.14 3.54 3.97 4.58 5.24 5.79 6.25 6.46 6.32 6.05 5.78 5.33 4.96 4.59 4.27 4.07 3.95 3.83 3.58 3.44 3.32 3.16 2.99 2.99 2.94 2.82 2.62
0.09 0.10 0.13 0.18 0.23 0.33 0.39 0.64 1.15 1.38 1.50 1.61 1.46 1.40 1.35 1.37 1.33 1.46 1.66 1.92 2.24 2.65 3.12 3.59 4.04 4.70 5.20 5.67 6.00 6.21 6.22 6.11 5.73 5.04 4.43 4.03 3.69 3.44 3.17 2.93 2.81 2.81 2.76 2.56 2.37 2.35 2.34 2.31 2.24
0.10 0.10 0.14 0.20 0.25 0.41 0.41 0.65 1.27 1.63 1.72 1.67 1.59 1.56 1.44 1.44 1.48 1.48 1.56 1.74 2.17 2.57 3.06 3.40 3.73 4.41 5.08 5.56 5.88 6.12 6.09 5.84 5.21 4.52 3.98 3.64 3.34 3.07 2.79 2.62 2.45 2.37 2.27 2.12 1.95 1.86 1.84 1.86 1.89
0.12 0.18 0.34 0.44 0.51 0.54 0.45 0.70 1.25 1.38 1.40 1.47 1.42 1.37 1.40 1.41 1.41 1.43 1.63 1.75 2.22 2.58 2.87 3.15 3.40 3.79 4.28 4.70 4.96 5.13 5.16 4.94 4.52 4.12 3.67 3.29 3.04 2.78 2.48 2.18 1.99 1.89 1.83 1.76 1.71 1.60 1.54 1.57 1.61
0.11 0.20 0.45 0.62 0.67 0.65 0.69 1.16 1.57 1.40 1.36 1.38 1.39 1.27 1.26 1.35 1.36 1.38 1.60 1.78 1.90 2.12 2.39 2.70 2.94 3.19 3.43 3.63 3.80 3.75 3.73 3.71 3.54 3.21 2.79 2.47 2.22 2.07 1.91 1.71 1.59 1.54 1.55 1.52 1.48 1.38 1.29 1.33 1.43
0.10 0.16 0.19 0.33 0.40 0.65 0.97 1.30 1.72 1.65 1.65 1.46 1.36 1.32 1.31 1.29 1.31 1.40 1.56 1.65 1.68 1.80 2.06 2.24 2.32 2.51 2.57 2.53 2.51 2.54 2.56 2.56 2.47 2.33 2.07 1.73 1.50 1.40 1.35 1.32 1.29 1.18 1.19 1.24 1.25 1.22 1.21 1.24 1.24
0.11 0.15 0.22 0.45 0.66 0.87 1.08 1.60 2.10 2.12 1.96 1.72 1.48 1.34 1.20 1.20 1.27 1.35 1.46 1.59 1.64 1.68 1.88 1.97 1.89 1.88 1.93 1.99 1.94 1.86 1.89 1.90 1.89 1.82 1.66 1.45 1.28 1.16 1.08 1.05 1.02 0.92 0.88 0.93 1.01 1.05 1.11 1.19 1.16
0.16 0.20 0.26 0.43 0.58 0.97 1.33 1.94 2.02 2.17 2.08 1.95 1.84 1.50 1.28 1.27 1.31 1.40 1.39 1.39 1.42 1.46 1.47 1.53 1.54 1.56 1.55 1.53 1.54 1.53 1.48 1.43 1.43 1.46 1.42 1.27 1.16 1.04 0.93 0.86 0.87 0.86 0.79 0.78 0.85 0.88 0.93 1.03 1.06
0.18 0.22 0.30 0.55 0.66 0.75 1.17 1.98 1.78 2.12 2.24 2.09 1.93 1.61 1.46 1.38 1.43 1.44 1.38 1.28 1.29 1.37 1.36 1.31 1.31 1.31 1.32 1.33 1.34 1.37 1.25 1.18 1.17 1.15 1.15 1.09 1.07 1.03 0.96 0.90 0.87 0.80 0.74 0.76 0.78 0.77 0.75 0.82 0.88